www.pogodaiklimat.ru

Погода и климат >> Архив погоды >> Монголия >> Ногооннуур


ПОГОДА в Ногооннууре

  • Прогноз погоды в Ногооннууре
  • Монитор погоды в Ногооннууре

АРХИВ ПОГОДЫ в Ногооннууре

Время (UTC), дата Ветер
(напр.,м/с)
 
Видим.   Явления Облачность Т
(С)
Тd
(С)
f
(%)
Тe
(С)
Тes
(С)
Комфортность P
(гПа)
Po
(гПа)
Тmin
(С)
Tmax
(С)
R
(мм)
R24
(мм)
S
(см)
03 9.09 Ю 1 50 км 6/3 1000 м
[Cu hum Ac cast Ci]
+12.9 +0.9 44 +13 +17 1013.6 849.6
06 9.09 В 4 10 км осадки на расстоянии 8/8 600 м
[Cb calv]
+14.6 +2.0 42 +14 +15 1010.6 848.0
09 9.09 ЮВ 3 10 км в посл. час ливневой дождь 9/9 600 м
[Cb calv]
+14.3 +3.0 47 +14 +14 1009.5 846.9
12 9.09 С 2 10 км осадки на расстоянии {ливн. осадки} 10/0 600 м
[As op]
+11.8 +6.4 69 +11 +11 1011.0 846.9 +16.0 0.3
15 9.09 З 2 50 км 9/0
[As trans]
+10.6 +6.9 78 +9 +9 1011.5 846.7
18 9.09 Ю 3 50 км 10/0
[As trans]
+10.0 +4.5 69 +8 +8 1011.8 846.6
21 9.09 З 2 50 км 9/0
[Ac As]
+8.4 +1.7 63 +7 +7 1013.1 846.8
00 10.09 ЮЗ 1 50 км 10/0
[As trans]
+6.5 +2.8 77 +6 +6 1015.4 847.7 +6.5
03 10.09 СЗ 2 50 км 9/0
[Ac As]
+11.0 +2.3 55 +10 +12 1013.4 848.5
06 10.09 В 2 50 км 9/3 1000 м
[Cu hum Cs]
+14.4 +0.1 38 +14 +20 1010.2 847.6
09 10.09 ЮВ 3 10 км осадки на расстоянии 10/3 600 м
[Cb calv Ac As]
+14.2 +2.3 45 +13 +14 1010.7 847.9
12 10.09 СЗ 1 50 км 10/0
[As trans]
+11.4 +4.3 62 +11 +11 1013.7 848.9 +15.3
15 10.09 штиль 0 50 км 8/0
[Ac cast]
+10.5 +3.4 61 +10 +10 1015.3 849.8
18 10.09 СЗ 1 50 км 8/0
[As trans]
+8.3 +2.0 64 +8 +8 1017.9 849.9
21 10.09 В 3 50 км 8/0
[As trans]
+8.3 -0.3 55 +6 +6 1016.9 849.9
00 11.09 ЮВ 1 50 км 9/0
[As op]
+7.4 -0.4 58 +7 +7 1018.3 850.8 +7.4
03 11.09 В 2 50 км 8/4 1000 м
[Cu med, cong Ac As]
+11.2 -1.4 41 +10 +12 1016.5 851.2
06 11.09 ЮВ 3 50 км 8/5 1000 м
[Cu med, cong Cs]
+13.2 -3.1 32 +12 +16 1014.3 850.4
09 11.09 ЮВ 4 50 км 8/5 1000 м
[Cu med, cong Ac As]
+13.2 -1.1 37 +12 +13 1013.4 849.6
12 11.09 В 2 10 км осадки на расстоянии 8/6 600 м
[Cb calv Ac As]
+10.0 -0.4 48 +9 +9 1016.6 850.6 +14.3
15 11.09 З 4 50 км 8/5 1000 м
[Cu Sc Ac lent]
+9.7 -3.1 40 +8 +8 1017.9 851.5
18 11.09 ЮЗ 4 50 км 5/5 1000 м
[Sc]
+9.6 -6.0 33 +8 +8 1017.6 851.2
21 11.09 ЮЗ 6 50 км 8/0
[As trans]
+8.6 -3.9 41 +5 +5 1016.8 850.0
00 12.09 СЗ 7 50 км 10/0
[As trans]
+5.5 -3.1 54 +1 +1 1020.4 851.3 +5.3
03 12.09 Ю 3 50 км 8/3 1000 м
[Cu hum Ac lent Ci fib]
+6.4 -2.7 52 +4 +6 1022.0 853.2
06 12.09 СЗ 5 20 км осадки на расстоянии 8/6 1000 м
[Cu med, cong Ci fib]
+8.0 -5.6 38 +5 +7 1021.6 853.7
12 12.09 ЮВ 5 50 км 3/0
[Ac lent]
+7.9 -7.3 33 +5 +5 1022.0 854.0 +11.0
15 12.09 Ю 1 50 км 6/0
[Ac As]
+5.3 -7.1 40 +5 +5 1025.3 855.3
18 12.09 ЮВ 2 50 км 6/0
[Ac lent Ci fib]
+4.5 -6.6 44 +3 +3 1025.0 854.6
21 12.09 ЮВ 2 50 км 1/0
[Ac lent]
+1.8 -6.0 56 -1 -1 1025.9 853.8
00 13.09 З 2 50 км 6/0
[Ac As]
-0.6 -5.7 68 -4 -4 1027.5 853.7 -2.4
03 13.09 В 1 50 км 8/4 1000 м
[Sc Ac cast]
+6.1 -5.7 42 +6 +8 1022.0 853.0
06 13.09 В 3 50 км 8/4 1000 м
[Cu Sc Ac cast Ci]
+10.2 -6.2 31 +9 +12 1017.8 851.7
09 13.09 ЮВ 3 50 км 8/3 1000 м
[Cu med, cong Ac As Ci fib]
+10.9 -3.8 35 +10 +11 1015.4 850.1
12 13.09 В 1 50 км 9/4 1000 м
[Cu Sc Ac cast Ci fib]
+10.4 -4.8 34 +11 +11 1015.0 849.5 +12.3
15 13.09 З 2 50 км 5/0
[Ac trans]
+8.0 -6.0 36 +7 +7 1018.1 850.8
18 13.09 В 2 50 км 6/0
[Ac As]
+5.8 -6.0 42 +4 +4 1020.5 851.6
21 13.09 ЮВ 2 50 км 8/0
[Ac lent Ci fib]
+6.0 -5.6 43 +4 +4 1020.2 851.4
00 14.09 штиль 0 50 км 5/0
[Cc]
+4.8 -5.1 49 +4 +4 852.0 +3.3
03 14.09 штиль 0 50 км 6/0
[Ac cast]
+8.8 -2.7 44 +9 +13 853.0
06 14.09 СЗ 2 50 км 6/3 1000 м
[Cu hum Ac lent Cc]
+12.3 -3.6 33 +12 +17 851.8
09 14.09 штиль 0 50 км 8/5 1000 м
[Cu med, cong Ci fib]
+13.0 -4.1 30 +13 +16 851.0
12 14.09 В 2 50 км 6/4 1000 м
[Cu med, cong Ci]
+11.6 -1.1 41 +11 +11 1018.1 852.7 +13.6
15 14.09 З 2 50 км 3/0
[Ac cast]
+7.5 -1.8 52 +6 +6 1022.2 853.9
18 14.09 СЗ 1 50 км 6/0
[Ac As]
+6.2 -2.6 53 +6 +6 1022.8 853.7
21 14.09 ЮВ 1 50 км 3/0
[Ac trans]
+2.1 -2.8 70 +1 +1 1024.9 853.2
00 15.09 З 2 50 км ясно +1.4 -3.4 70 -2 -2 1026.4 854.0 +0.3
03 15.09 ЮВ 1 50 км ясно +10.5 -2.6 40 +11 +17 1020.1 853.8
06 15.09 ЮВ 3 50 км 3/3 1000 м
[Cu hum]
+13.3 -1.9 35 +12 +18 1016.8 852.5
09 15.09 В 2 50 км 4/4 1000 м
[Cu med, cong]
+14.7 -2.2 31 +15 +18 1014.2 851.1
12 15.09 В 1 50 км 3/1 1000 м
[Cu hum Ci]
+12.8 -1.4 37 +13 +13 1015.4 851.1 +15.6
15 15.09 СЗ 2 50 км 5/0
[Ac cast]
+8.3 -0.9 52 +7 +7 1020.2 852.7
18 15.09 З 2 50 км 6/0
[Ac cast]
+8.4 -2.8 45 +7 +7 1020.5 853.0
21 15.09 З 1 50 км 8/0
[Ac cast]
+5.3 -1.4 62 +5 +5 1023.0 853.4

 

Местоположение метеостанции Ногооннуур (Монголия): широта 49.60 долгота 90.35 высота над уровнем моря 1480 м.

В архиве по умолчанию представлена погода в Ногооннууре за последнюю неделю. Архивные данные за месяц целиком и за предыдущие месяцы, начиная с января 2011 года, Вы можете получить, выбрав интересующий диапазон дат из раскрывающегося списка и нажав кнопку "Ввод!".


*Определитесь, кто Вы:
робот инопланетянин человек

Внимание! Время в таблицах - всемирное. Для получения местного времени необходимо прибавить поправку, которая равна 8 ч.

Смотрите также архив погоды в соседних городах и на ближайших метеорологических станциях:

Погода в Углие (Монголия) (81 км)
Погода в Ташанте (Алтай, Россия) (84 км)
Погода в Мугур-Аксы (Тува, Россия) (86 км)
Погода в Умнегове (Монголия) (118 км)
Погода в Улаангоме (Монголия) (126 км)
Погода в Кош-Агаче (Алтай, Россия) (129 км)
Погода в Толбо (Монголия) (131 км)
Погода в Тээли (Тува, Россия) (158 км)
Погода в Хандагайты (Тува, Россия) (178 км)
Погода в Ховде (Монголия) (197 км)

Пояснения к столбцам:

Ветер - указаны скорость ветра в м/с - средняя за 10 мин, порывы в срок и между сроками (в фигурных скобках) и направление, откуда дует ветер: С - северный, СВ - северо-восточный, В - восточный, ЮВ - юго-восточный, Ю - южный, ЮЗ - юго-западный, З - западный, СЗ - северо-западный.
Видимость - горизонтальная дальность видимости в метрах или километрах. При видимости от 1 до 10 км при отсутствии осадков обычно наблюдается дымка, при ухудшении видимости до 1 км и менее - туман. В сухую погоду видимость может ухудшаться дымом, пылью или мглою.
Явления - указаны атмосферные явления, наблюдавшиеся в срок или в последний час перед сроком; фигурными скобками обозначены явления, наблюдавшиеся между сроками (за 1-3 часа до срока); квадратными скобками обозначены град или гололедные отложения с указанием их диаметра в мм.
Облачность - указаны через наклонную черту общая и нижняя облачность в баллах и высота нижней границы облаков в метрах; квадратными скобками обозначены формы облаков: Ci - перистые, Cs - перисто-слоистые, Cc - перисто-кучевые, Ac - высококучевые, As - высокослоистые, Sc - слоисто-кучевые, Ns - слоисто-дождевые, Cu - кучевые, Cb - кучево-дождевые. Подробнее классификацию облаков см. в Атласе облаков (PDF).
T - Температура воздуха - температура, измеренная на высоте 2 м над землей.
Td - Температура точки росы - температура, при понижении до которой содержащийся в воздухе водяной пар достигнет насыщения.
f - Относительная влажность воздуха - влажноcть воздуха, измеренная на высоте 2 м над землей.
Te - Эффективная температура - температура, которую ощущает одетый по сезону человек в тени. Характеристика душности погоды. При расчете учитывается влияние влажности воздуха и скорости ветра на теплоощущения человека.
Tes - Эффективная температура на солнце - температура, которую ощущает человек, с поправкой на солнечный нагрев. Характеристика знойности погоды. Зависит от высоты солнца над горизонтом, облачности и скорости ветра. Ночью, в пасмурную погоду, а также при ветре 12 м/с и более поправка равна нулю.
P - Атмосферное давление - приведенное к уровню моря атмосферное давление.
Po - Атмосферное давление - измеренное на уровне метеостанции атмосферное давление.
Tmin - Минимальная температура - минимум температуры воздуха на высоте 2 м над землей.
Tmax - Максимальная температура - максимум температуры воздуха на высоте 2 м над землей.
R - Количество осадков - Количество выпавших осадков за период времени, мм. При наведении курсора мыши на число - период времени, за который выпало указанное количество осадков.
R24 - Количество осадков - Количество выпавших осадков за 24 часа, мм.
S - Снежный покров - Высота снежного покрова, см. При наведении курсора мыши на число - состояние снежного покрова и степень покрытия местности в баллах.